Location: Kra?nica
(53.4833°N, 14.6167°E)
Time: 21:30:40
(UTC+00:00)

Okean 2 - Pass Details

Date: 23 May 2024
Orbit: 541 x 553 km, 82.5° (Epoch: 21 June)

Event Time Altitude Azimuth Distance (km) Brightness Sun altitude
Exits shadow 00:51:07 19° 207° (SSW) 1,343 4.6 -12.0°
Maximum altitude 00:53:52 60° 284° (WNW) 624 3.5 -11.8°
Drops below altitude 10° 00:57:50 10° 5° (N) 1,819 7.1 -11.5°
Sets 01:00:01 0° 9° (N) 2,718 8.4 -11.4°
